Showing default

PIAST-S2, 66757

Orbit data source: Space-Track

PIAST-S2, 66757 is a Polish payload satellite in SSO that was launched on Fri, 28 Nov 2025 UTC via an FALCON 9 launch vehicle from the Air Force Western Test Range (AFWTR). Payload-class satellites include a variety of spacecraft equipped with specific instruments for various scientific and technological missions. These include communications satellites like Starlink; space stations such as the ISS; scientific satellites like the Hubble; Earth observation satellites from companies like Planet Labs, Umbra, and HawkEye 360; GPS; miniature CubeSats for education and research; and military/defense satellites.

Loading next visibility...
Identifier
66757, 2025-276CV
Orbit
SSO
Country
Flag of PLPL / POL
Related business
Manufacturer
CREO
Mission
Operational Commercial Imaging
Bus & Motor
CUBESAT 6U, Unknown motor
Mass
12 kg wet, 12 kg dry
Launch date (UTC)
2025-11-28 (2 months ago)
Launch vehicle
FALCON 9
Launch site
Air Force Western Test Range (AFWTR)
Object type
Payload
Rocket body
Debris
Shape & HBR
Box, 0.4 m
Radar Cross Section
0.542 m²

Expand to show TLE details & history
Last TLE update: 19 hours ago

TLE from 19 hours ago
0 PIAST-S2
1 66757U 25276CV  26034.45497403  .00006899  00000-0  33457-3 0  9991
2 66757  97.4356 110.3764 0002963  75.5935 284.5628 15.18818428 10128
Epoch: 2026-02-03T10:55Z
TLE epoch observation values (Epoch: 2026-02-03T10:55:09.756Z)
Latitude
-0.00002°
Longitude
172.95009°
Altitude
511.986 km
Speed
7.608 km/s
True Right ascension
07h 21m 30s
True Declination
0° 00' 00"
Sunlit
Object was in full shadow at epoch
Visualization orbit readout
Latitude
Unknown
Longitude
Unknown
Altitude
Unknown
Speed
Unknown
Apparent Right ascension
Unknown
Apparent Declination
Unknown
Sunlit
N/A
Visualization observer readout
Local Sidereal Time
07:46:51
Azimuth
Unknown
Elevation
Unknown
Doppler factor
Unknown
Orbital elements
Apogee altitude
508.419 km
Perigee altitude
504.339 km
Semi-major axis
6,884.516 km
Eccentricity
0.0003
Inclination
97.4356°
RAAN
110.3764°
Arg. of periapsis
75.5935°
True anomaly
284.52993°
Mean anomaly
284.5628°
Eccentric anomaly
284.54637°
Mean motion
3.79956 °/min
Orbital period
94.75 mins
BSTAR
0.00033457
Loading maneuver chart data...
Computing Atmospheric mass density...
Loading historical data...
Loading historical data...
Loading historical data...
Loading historical data...
Loading historical data...
Loading historical data...
Loading historical data...

Documentation

Showing up to 5 results
|